Location: Unspecified
(0.0000°N, 0.0000°E)
Time: 20:47:59
(UTC+00:00)

Vanguard 1 Rocket - Visible Passes

Search period start: 30 August 2016 00:00
Search period end: 09 September 2016 00:00
Orbit: 652 x 4225 km, 34.3° (Epoch: 29 August)

Date Brightness Start Highest point End Pass type
(mag) Time Alt. Az. Time Alt. Az. Time Alt. Az.
30 Aug 9.4 03:15:45 24° SE 03:15:45 24° SE 03:19:07 10° SE visible
30 Aug 9.7 05:34:36 10° SW 05:39:41 17° SSW 05:46:51 10° SSE visible
30 Aug 10.9 18:21:34 10° WNW 18:31:58 17° NW 18:39:29 10° N visible
31 Aug 9.0 04:26:16 23° SSW 04:26:49 23° SSW 04:33:54 10° SSE visible
01 Sep 9.7 03:19:25 18° SSE 03:19:25 18° SSE 03:21:42 10° SE visible
01 Sep 11.0 18:28:25 10° WNW 18:35:41 13° NNW 18:41:26 10° N visible
02 Sep 9.5 04:29:50 15° SSW 04:30:43 15° SSW 04:35:27 10° SSE visible
03 Sep 10.0 03:22:54 13° SSE 03:22:54 13° SSE 03:23:55 10° SSE visible
03 Sep 11.0 18:36:25 10° NW 18:39:46 11° NNW 18:42:45 10° NNW visible
